"Timestamp","TZ","WindDir_Mean (deg)","WindSpd_Mean (km/h)","WindSpd_Min (km/h)","WindSpd_Max (km/h)","Temp_Mean (deg)","RH_Mean (%)","MSLP_Mean (hPa)","Rain_Acc (mm)","Rain_Intensity (mm/h)","Hail_Acc (hits/cm2)","Hail_Intensity (hits/cm2hr)","Solar_Mean (W/m2)"
2018/04/20 00:00:00.002,n,211,2.88,2.52,3.6,21,72.9,1020.12,0,0,0,0,0.027847
2018/04/20 00:01:00.000,n,206,2.16,2.16,2.88,21,72.8,1020.12,0,0,0,0,0.029564
2018/04/20 00:02:00.000,n,173,3.24,2.52,3.24,21,73,1020.12,0,0,0,0,0.030479
2018/04/20 00:03:00.000,n,102,1.44,1.08,1.8,21,73.1,1020.12,0,0,0,0,0.030479
2018/04/20 00:04:00.000,n,108,1.44,1.08,2.88,21,73.3,1020.12,0,0,0,0,0.027847
2018/04/20 00:05:00.007,n,161,3.6,3.24,3.96,21,73.3,1020.12,0,0,0,0,0.028725
2018/04/20 00:06:00.004,n,167,3.6,3.24,3.96,21,73.4,1020.12,0,0,0,0,0.032196
2018/04/20 00:07:00.000,n,256,2.16,2.16,2.52,20.9,73.3,1020.12,0,0,0,0,0.028725
2018/04/20 00:08:00.001,n,169,1.44,0.72,2.16,20.9,73.4,1020.12,0,0,0,0,0.033073
2018/04/20 00:09:00.014,n,237,1.8,1.44,1.8,20.9,73.7,1020.12,0,0,0,0,0.023499
2018/04/20 00:10:00.000,n,169,2.16,1.8,2.52,20.9,73.7,1020.12,0,0,0,0,0.026131
2018/04/20 00:11:00.000,n,217,2.52,2.52,2.52,20.9,73.7,1020.12,0,0,0,0,0.032196
2018/04/20 00:12:00.000,n,321,1.44,0.36,3.24,20.9,73.8,1020.12,0,0,0,0,0.029564
2018/04/20 00:13:00.005,n,239,3.24,2.52,3.6,20.9,73.8,1020.12,0,0,0,0,0.027847
2018/04/20 00:14:00.003,n,248,4.68,3.96,5.4,20.9,73.9,1020.12,0,0,0,0,0.027847
2018/04/20 00:15:00.000,n,262,2.88,2.52,3.24,20.9,74.4,1020.12,0,0,0,0,0.030479
2018/04/20 00:16:00.000,n,249,2.88,2.52,3.24,20.9,74.1,1020.12,0,0,0,0,0.027847
2018/04/20 00:17:00.013,n,264,3.24,2.88,3.24,20.8,74.2,1020.12,0,0,0,0,0.027847
2018/04/20 00:18:00.011,n,264,3.6,3.24,3.96,20.8,74.2,1020.12,0,0,0,0,0.027847
2018/04/20 00:19:00.000,n,264,2.88,2.16,3.96,20.8,74.2,1020.12,0,0,0,0,0.028725
2018/04/20 00:20:00.000,n,256,4.32,3.96,4.32,20.8,74.1,1020.12,0,0,0,0,0.029564
2018/04/20 00:21:00.000,n,239,4.68,3.96,5.04,20.7,74.3,1020.12,0,0,0,0,0.028725
2018/04/20 00:22:00.005,n,233,5.76,5.4,5.76,20.7,75.2,1020.12,0,0,0,0,0.026131
2018/04/20 00:23:00.001,n,232,5.04,3.96,6.12,20.7,74.6,1020.12,0,0,0,0,0.029564
2018/04/20 00:24:00.000,n,255,6.48,5.04,7.2,20.7,74.3,1020.12,0,0,0,0,0.029564
2018/04/20 00:25:00.000,n,246,6.12,5.4,7.2,20.7,74.5,1020.12,0,0,0,0,0.02697
2018/04/20 00:26:00.013,n,249,3.6,2.88,4.32,20.6,74.5,1020.12,0,0,0,0,0.02697
2018/04/20 00:27:00.011,n,227,2.16,2.16,2.88,20.6,74.5,1020.12,0,0,0,0,0.026131
2018/04/20 00:28:00.000,n,265,3.6,2.88,3.96,20.6,74.4,1020.12,0,0,0,0,0.028725
2018/04/20 00:29:00.000,n,248,2.88,2.52,3.24,20.6,74.4,1020.12,0,0,0,0,0.021744
2018/04/20 00:30:00.000,n,256,4.68,4.32,5.04,20.6,74.3,1020.12,0,0,0,0,0.02697
2018/04/20 00:31:00.006,n,230,2.16,1.8,2.52,20.5,74.5,1020.12,0,0,0,0,0.02697
2018/04/20 00:32:00.004,n,268,4.32,3.96,4.68,20.5,74.4,1020.12,0,0,0,0,0.023499
2018/04/20 00:33:00.001,n,252,1.8,1.44,1.8,20.5,74.5,1020.12,0,0,0,0,0.023499
2018/04/20 00:34:00.000,n,240,1.44,1.08,2.16,20.5,74.5,1020.12,0,0,0,0,0.021744
2018/04/20 00:35:00.014,n,221,2.88,2.52,3.96,20.5,74.6,1020.12,0,0,0,0,0.023499
2018/04/20 00:36:00.011,n,253,1.08,0.36,2.88,20.5,74.5,1020.12,0,0,0,0,0.019989
2018/04/20 00:37:00.000,n,252,3.96,3.24,4.32,20.5,74.5,1020.02,0,0,0,0,0.023499
2018/04/20 00:38:00.000,n,252,2.88,1.08,4.68,20.5,75,1020.02,0,0,0,0,0.022621
2018/04/20 00:39:00.005,n,236,5.04,4.32,5.04,20.5,74.7,1020.02,0,0,0,0,0.022621
2018/04/20 00:40:00.003,n,239,1.8,1.08,2.88,20.5,74.9,1020.02,0,0,0,0,0.020905
2018/04/20 00:41:00.001,n,306,2.52,2.52,3.24,20.5,75.3,1020.02,0,0,0,0,0.022621
2018/04/20 00:42:00.000,n,264,3.24,2.52,3.96,20.5,74.9,1019.92,0,0,0,0,0.019989
2018/04/20 00:43:00.000,n,278,1.8,1.08,2.88,20.5,75.1,1019.92,0,0,0,0,0.023499
2018/04/20 00:44:00.013,n,342,0.72,0.36,1.8,20.5,75.2,1019.92,0,0,0,0,0.021744
2018/04/20 00:45:00.010,n,217,1.8,0.72,2.88,20.5,75,1019.92,0,0,0,0,0.027847
2018/04/20 00:46:00.000,n,170,2.16,1.8,2.52,20.5,74.7,1019.92,0,0,0,0,0.023499
2018/04/20 00:47:00.000,n,232,2.52,1.08,3.6,20.5,74.7,1019.92,0,0,0,0,0.022621
2018/04/20 00:48:00.005,n,236,2.16,1.8,2.16,20.5,74.8,1019.92,0,0,0,0,0.022621
2018/04/20 00:49:00.002,n,173,1.44,1.08,2.16,20.5,74.9,1019.92,0,0,0,0,0.023499
2018/04/20 00:50:00.000,n,148,2.16,2.16,2.52,20.5,75,1019.92,0,0,0,0,0.023499
2018/04/20 00:51:00.000,n,217,3.24,2.52,3.96,20.5,75,1019.92,0,0,0,0,0.020905
2018/04/20 00:52:00.012,n,193,1.8,1.8,2.16,20.5,74.9,1019.92,0,0,0,0,0.022621
2018/04/20 00:53:00.009,n,227,3.24,2.88,3.24,20.5,74.9,1019.82,0,0,0,0,0.01915
2018/04/20 00:54:00.006,n,269,1.08,0.72,1.44,20.5,74.9,1019.82,0,0,0,0,0.018272
2018/04/20 00:55:00.000,n,228,1.08,0.72,1.44,20.5,75,1019.82,0,0,0,0,0.021744
2018/04/20 00:56:00.000,n,196,2.52,2.52,2.88,20.5,75.1,1019.82,0,0,0,0,0.024338
2018/04/20 00:57:00.000,n,249,2.88,2.88,3.24,20.5,75.1,1019.82,0,0,0,0,0.019989
2018/04/20 00:58:00.000,n,262,2.52,2.52,2.88,20.5,75.1,1019.82,0,0,0,0,0.017395
2018/04/20 00:59:00.000,n,177,1.44,1.08,1.8,20.5,75.2,1019.82,0,0,0,0,0.018272
2018/04/20 01:00:00.006,n,148,3.24,3.24,3.24,20.5,75.3,1019.82,0,0,0,0,0.01915
2018/04/20 01:01:00.003,n,210,2.88,2.16,3.24,20.5,75.5,1019.82,0,0,0,0,0.01915
2018/04/20 01:02:00.001,n,213,3.24,2.88,3.6,20.5,75.6,1019.82,0,0,0,0,0.020905
2018/04/20 01:03:00.000,n,250,3.24,1.8,3.96,20.4,75.7,1019.82,0,0,0,0,0.026932
2018/04/20 01:04:00.000,n,135,1.8,0.72,2.52,20.4,75.8,1019.82,0,0,0,0,0.036507
2018/04/20 01:05:00.000,n,223,1.08,1.08,1.44,20.4,75.7,1019.82,0,0,0,0,0.033913
2018/04/20 01:06:00.000,n,253,2.88,2.52,3.6,20.4,75.7,1019.82,0,0,0,0,0.037422
2018/04/20 01:07:00.000,n,254,3.24,2.88,3.6,20.4,76.2,1019.82,0,0,0,0,0.033913
2018/04/20 01:08:00.006,n,271,4.68,4.32,4.68,20.4,75.9,1019.82,0,0,0,0,0.032158
2018/04/20 01:09:00.004,n,246,5.04,3.24,6.12,20.4,75.8,1019.82,0,0,0,0,0.035667
2018/04/20 01:10:00.001,n,266,4.32,3.6,4.32,20.4,75.8,1019.82,0,0,0,0,0.027847
2018/04/20 01:11:00.001,n,262,3.6,3.24,3.6,20.3,75.9,1019.82,0,0,0,0,0.030441
2018/04/20 01:12:00.014,n,259,2.88,2.52,3.6,20.3,75.9,1019.82,0,0,0,0,0.027847
2018/04/20 01:13:00.000,n,257,2.52,1.8,2.88,20.3,76.3,1019.72,0,0,0,0,0.033913
2018/04/20 01:14:00.000,n,230,3.96,3.6,3.96,20.3,76.1,1019.72,0,0,0,0,0.028725
2018/04/20 01:15:00.000,n,243,5.4,4.32,6.12,20.3,76.5,1019.72,0,0,0,0,0.031281
2018/04/20 01:16:00.005,n,231,3.6,3.24,3.96,20.3,76.4,1019.82,0,0,0,0,0.028725
2018/04/20 01:17:00.002,n,241,4.32,3.6,5.04,20.3,76.1,1019.82,0,0,0,0,0.027847
2018/04/20 01:18:00.000,n,213,2.16,0.36,4.32,20.2,76.2,1019.82,0,0,0,0,0.031281
2018/04/20 01:19:00.001,n,208,1.44,0.72,2.16,20.2,76.2,1019.82,0,0,0,0,0.030441
2018/04/20 01:20:00.013,n,241,3.6,3.24,4.32,20.2,76.3,1019.82,0,0,0,0,0.030441
2018/04/20 01:21:00.011,n,261,5.04,4.32,5.76,20.2,76,1019.82,0,0,0,0,0.030441
2018/04/20 01:22:00.000,n,259,2.52,1.8,2.88,20.2,76,1019.82,0,0,0,0,0.027847
2018/04/20 01:23:00.000,n,256,4.32,3.6,4.32,20.1,76.1,1019.82,0,0,0,0,0.030441
2018/04/20 01:24:00.004,n,260,5.04,4.32,5.4,20.1,76.1,1019.82,0,0,0,0,0.026932
2018/04/20 01:25:00.001,n,258,3.96,2.52,4.68,20.1,76.1,1019.82,0,0,0,0,0.030441
2018/04/20 01:26:00.000,n,248,4.32,3.96,4.68,20.1,76.2,1019.82,0,0,0,0,0.028725
2018/04/20 01:27:00.000,n,247,6.48,5.76,6.84,20.1,76.2,1019.82,0,0,0,0,0.026932
2018/04/20 01:28:00.011,n,247,3.24,2.16,3.6,20.1,76.5,1019.82,0,0,0,0,0.026093
2018/04/20 01:29:00.009,n,230,3.6,2.88,4.32,20.1,76.2,1019.82,0,0,0,0,0.031281
2018/04/20 01:30:00.006,n,234,3.96,3.6,3.96,20.1,76.4,1019.72,0,0,0,0,0.026093
2018/04/20 01:31:00.000,n,224,4.68,1.44,7.2,20.1,76.6,1019.72,0,0,0,0,0.026093
2018/04/20 01:32:00.000,n,244,5.76,4.32,6.48,20.1,76.2,1019.72,0,0,0,0,0.031281
2018/04/20 01:33:00.000,n,262,4.32,2.16,6.84,20.1,77.2,1019.72,0,0,0,0,0.027847
2018/04/20 01:34:00.000,n,252,3.24,2.52,3.96,20.1,76.7,1019.72,0,0,0,0,0.025215
2018/04/20 01:35:00.000,n,268,5.4,5.04,6.12,20.1,75.8,1019.72,0,0,0,0,0.024338
2018/04/20 01:36:00.009,n,262,3.6,3.24,3.96,20.1,75.7,1019.72,0,0,0,0,0.026932
2018/04/20 01:37:00.006,n,269,1.8,1.08,2.52,20.1,75.8,1019.72,0,0,0,0,0.028725
2018/04/20 01:38:00.003,n,201,1.08,0.72,1.8,20.1,75.9,1019.72,0,0,0,0,0.023499
2018/04/20 01:39:00.003,n,256,3.24,2.88,4.32,20.1,76,1019.72,0,0,0,0,0.021706
2018/04/20 01:40:00.001,n,239,3.24,2.52,4.32,20.1,75.9,1019.72,0,0,0,0,0.031281
2018/04/20 01:41:00.000,n,208,4.68,3.96,5.04,20.1,75.6,1019.72,0,0,0,0,0.024338
2018/04/20 01:42:00.000,n,239,3.96,3.96,4.32,20.1,75.5,1019.62,0,0,0,0,0.024338
2018/04/20 01:43:00.000,n,221,2.16,1.44,2.16,20.1,75.5,1019.62,0,0,0,0,0.021706
2018/04/20 01:44:00.006,n,210,2.88,2.16,3.24,20.1,75.4,1019.62,0,0,0,0,0.026932
2018/04/20 01:45:00.003,n,250,3.96,3.24,4.32,20.1,75.4,1019.62,0,0,0,0,0.028725
2018/04/20 01:46:00.000,n,211,1.44,1.08,2.16,20.1,75.6,1019.62,0,0,0,0,0.025215
2018/04/20 01:47:00.002,n,262,1.44,1.08,1.44,20.1,75.4,1019.62,0,0,0,0,0.026093
2018/04/20 01:48:00.001,n,269,2.52,2.16,2.88,20.1,75.3,1019.62,0,0,0,0,0.022621
2018/04/20 01:49:00.001,n,282,3.96,2.88,4.32,20.1,75.3,1019.62,0,0,0,0,0.029564
2018/04/20 01:50:00.000,n,242,2.88,2.16,3.6,20.1,75.2,1019.62,0,0,0,0,0.022621
2018/04/20 01:51:00.000,n,262,2.16,1.44,2.52,20.1,75.2,1019.62,0,0,0,0,0.026932
2018/04/20 01:52:00.000,n,203,1.8,1.44,1.8,20.1,75.4,1019.62,0,0,0,0,0.031281
2018/04/20 01:53:00.000,n,167,5.4,4.68,5.76,20.1,75.3,1019.62,0,0,0,0,0.022621
2018/04/20 01:54:00.005,n,150,4.32,3.6,4.32,20.2,75.4,1019.52,0,0,0,0,0.020866
2018/04/20 01:55:00.003,n,149,5.76,5.04,5.76,20.2,75.8,1019.52,0,0,0,0,0.026093
2018/04/20 01:56:00.000,n,166,5.04,3.96,5.4,20.2,76,1019.52,0,0,0,0,0.019989
2018/04/20 01:57:00.000,n,158,5.04,4.68,5.04,20.2,76.3,1019.42,0,0,0,0,0.026932
2018/04/20 01:58:00.000,n,143,5.4,4.68,5.76,20.2,76.4,1019.42,0,0,0,0,0.028725
2018/04/20 01:59:00.000,n,137,3.24,1.8,4.68,20.2,76.4,1019.42,0,0,0,0,0.028725
2018/04/20 02:00:00.000,n,168,2.52,0.72,4.68,20.1,76.6,1019.42,0,0,0,0,0.027008
2018/04/20 02:01:00.004,n,167,3.6,2.16,4.68,20.1,76.8,1019.42,0,0,0,0,0.026131
2018/04/20 02:02:00.001,n,176,5.04,4.68,5.4,20.1,76.9,1019.32,0,0,0,0,0.027847
2018/04/20 02:03:00.000,n,183,3.6,3.24,3.96,20.1,77,1019.32,0,0,0,0,0.029602
2018/04/20 02:04:00.000,n,154,4.68,4.32,5.04,20,76.8,1019.32,0,0,0,0,0.03479
2018/04/20 02:05:00.012,n,198,2.52,2.16,3.24,20,77.1,1019.32,0,0,0,0,0.032196
2018/04/20 02:06:00.009,n,199,2.16,1.44,2.88,20,77.1,1019.22,0,0,0,0,0.026131
2018/04/20 02:07:00.000,n,228,1.8,1.08,2.52,20,76.9,1019.22,0,0,0,0,0.03479
2018/04/20 02:08:00.003,n,146,2.88,2.16,2.88,20,77.1,1019.22,0,0,0,0,0.031357
2018/04/20 02:09:00.000,n,166,1.8,0.72,2.16,20,77,1019.22,0,0,0,0,0.03479
2018/04/20 02:10:00.000,n,148,4.68,3.6,5.4,20,77,1019.22,0,0,0,0,0.027847
2018/04/20 02:11:00.000,n,157,4.68,3.96,4.68,20,76.8,1019.22,0,0,0,0,0.027008
2018/04/20 02:12:00.009,n,154,4.32,4.32,4.68,20,76.7,1019.22,0,0,0,0,0.035706
2018/04/20 02:13:00.006,n,172,3.96,3.6,4.32,20,76.7,1019.22,0,0,0,0,0.032196
2018/04/20 02:14:00.003,n,177,4.68,3.96,5.4,20,76.7,1019.22,0,0,0,0,0.035706
2018/04/20 02:15:00.003,n,156,6.84,6.48,7.2,20,76.6,1019.22,0,0,0,0,0.03479
2018/04/20 02:16:00.000,n,152,2.88,2.52,3.6,19.9,76.7,1019.22,0,0,0,0,0.027847
2018/04/20 02:17:00.000,n,163,3.96,3.6,3.96,19.9,76.6,1019.22,0,0,0,0,0.030479
2018/04/20 02:18:00.000,n,143,2.88,1.8,3.6,19.9,76.7,1019.22,0,0,0,0,0.031357
2018/04/20 02:19:00.000,n,173,3.96,3.6,4.68,19.9,76.8,1019.22,0,0,0,0,0.027847
2018/04/20 02:20:00.000,n,164,3.6,3.24,3.96,19.9,76.9,1019.12,0,0,0,0,0.027008
2018/04/20 02:21:00.007,n,155,3.96,3.6,4.32,19.9,77,1019.12,0,0,0,0,0.021782
2018/04/20 02:22:00.005,n,164,2.88,1.44,3.24,19.9,77,1019.12,0,0,0,0,0.026131
2018/04/20 02:23:00.001,n,191,2.88,2.16,3.24,19.9,77.1,1019.02,0,0,0,0,0.022621
2018/04/20 02:24:00.015,n,213,3.24,2.52,3.96,19.9,77,1019.02,0,0,0,0,0.029602
2018/04/20 02:25:00.000,n,173,1.8,0.72,3.24,19.9,77,1019.02,0,0,0,0,0.028725
2018/04/20 02:26:00.000,n,146,2.88,2.16,3.24,19.9,77.1,1019.02,0,0,0,0,0.031357
2018/04/20 02:27:00.000,n,230,3.6,3.24,4.32,19.9,77.2,1019.02,0,0,0,0,0.024376
2018/04/20 02:28:00.007,n,237,0.36,0,0.72,19.9,77.2,1019.02,0,0,0,0,0.027847
2018/04/20 02:29:00.005,n,161,1.44,0.72,2.52,19.9,77.1,1019.02,0,0,0,0,0.027847
2018/04/20 02:30:00.002,n,252,2.16,1.8,2.52,19.9,77.1,1019.02,0,0,0,0,0.026131
2018/04/20 02:31:00.000,n,270,2.88,2.16,2.88,19.9,77.2,1019.02,0,0,0,0,0.025215
2018/04/20 02:32:00.012,n,272,1.8,1.08,2.16,19.9,77.4,1019.02,0,0,0,0,0.029602
2018/04/20 02:33:00.010,n,180,0.72,0.36,1.08,19.9,77.4,1019.02,0,0,0,0,0.027008
2018/04/20 02:34:00.000,n,214,3.6,2.88,4.32,19.9,77.2,1019.02,0,0,0,0,0.026131
2018/04/20 02:35:00.000,n,246,2.16,1.8,2.52,19.9,77.2,1018.92,0,0,0,0,0.025215
2018/04/20 02:36:00.005,n,8,1.08,0.72,2.16,19.9,77.3,1018.92,0,0,0,0,0.025215
2018/04/20 02:37:00.002,n,166,3.24,2.52,3.96,19.9,77.2,1018.92,0,0,0,0,0.021782
2018/04/20 02:38:00.000,n,173,1.44,0.72,2.16,19.9,77.2,1018.92,0,0,0,0,0.027847
2018/04/20 02:39:00.000,n,157,3.24,0.72,5.76,19.8,77.2,1018.82,0,0,0,0,0.029602
2018/04/20 02:40:00.012,n,145,3.96,3.6,3.96,19.8,77.2,1018.82,0,0,0,0,0.01915
2018/04/20 02:41:00.009,n,146,1.8,0.72,2.88,19.8,77.4,1018.82,0,0,0,0,0.01915
2018/04/20 02:42:00.006,n,138,3.96,3.6,4.68,19.8,77.4,1018.82,0,0,0,0,0.027008
2018/04/20 02:43:00.000,n,140,3.96,3.6,3.96,19.8,77.4,1018.82,0,0,0,0,0.017433
2018/04/20 02:44:00.002,n,156,2.88,1.8,3.6,19.7,77.5,1018.72,0,0,0,0,0.021782
2018/04/20 02:45:00.000,n,185,3.6,2.52,3.96,19.7,77.6,1018.72,0,0,0,0,0.023499
2018/04/20 02:46:00.000,n,150,2.16,1.08,2.52,19.7,77.7,1018.72,0,0,0,0,0.025215
2018/04/20 02:47:00.000,n,188,1.8,1.44,2.52,19.7,77.7,1018.72,0,0,0,0,0.023499
2018/04/20 02:48:00.006,n,212,2.16,1.8,2.52,19.7,77.7,1018.72,0,0,0,0,0.020905
2018/04/20 02:49:00.003,n,235,3.24,2.52,3.6,19.7,77.8,1018.72,0,0,0,0,0.01915
2018/04/20 02:50:00.003,n,220,2.16,2.16,2.52,19.7,77.8,1018.72,0,0,0,0,0.018272
2018/04/20 02:51:00.000,n,252,1.8,1.08,3.24,19.7,77.9,1018.72,0,0,0,0,0.017433
2018/04/20 02:52:00.000,n,298,1.08,0,1.8,19.7,78,1018.72,0,0,0,0,0.017433
2018/04/20 02:53:00.000,n,310,1.8,1.08,2.16,19.7,78,1018.72,0,0,0,0,0.016556
2018/04/20 02:54:00.000,n,268,3.6,3.24,3.96,19.7,78.1,1018.72,0,0,0,0,0.028725
2018/04/20 02:55:00.005,n,223,1.08,0.72,1.08,19.7,78.7,1018.72,0,0,0,0,0.033951
2018/04/20 02:56:00.003,n,177,1.8,1.44,2.16,19.7,78.3,1018.72,0,0,0,0,0.033073
2018/04/20 02:57:00.000,n,104,1.08,0.72,1.8,19.7,78.5,1018.72,0,0,0,0,0.030441
2018/04/20 02:58:00.000,n,131,1.08,0.72,2.16,19.7,78.1,1018.72,0,0,0,0,0.031319
2018/04/20 02:59:00.013,n,235,3.6,3.24,4.32,19.7,78.1,1018.72,0,0,0,0,0.028725
2018/04/20 03:00:00.009,n,246,5.4,5.04,5.4,19.7,77.9,1018.62,0,0,0,0,0.034828
2018/04/20 03:01:00.000,n,226,3.96,3.6,4.32,19.7,78.1,1018.62,0,0,0,0,0.035667
2018/04/20 03:02:00.000,n,234,3.96,3.6,4.32,19.7,78,1018.62,0,0,0,0,0.028725
2018/04/20 03:03:00.000,n,255,3.6,3.24,4.32,19.7,78.1,1018.62,0,0,0,0,0.028725
2018/04/20 03:04:00.000,n,206,2.52,2.52,2.88,19.6,78.1,1018.62,0,0,0,0,0.030441
2018/04/20 03:05:00.000,n,208,2.88,2.52,3.24,19.6,78.2,1018.62,0,0,0,0,0.028725
2018/04/20 03:06:00.000,n,198,1.08,1.08,1.44,19.6,78.1,1018.62,0,0,0,0,0.026093
2018/04/20 03:07:00.008,n,171,1.8,1.44,2.16,19.6,78.2,1018.62,0,0,0,0,0.028725
2018/04/20 03:08:00.006,n,179,3.24,3.24,3.6,19.6,78.2,1018.62,0,0,0,0,0.028725
2018/04/20 03:09:00.002,n,186,2.88,2.16,3.24,19.6,78.2,1018.62,0,0,0,0,0.028725
2018/04/20 03:10:00.000,n,170,4.68,3.6,5.76,19.6,78.2,1018.62,0,0,0,0,0.027847
2018/04/20 03:11:00.000,n,167,2.88,2.16,3.6,19.6,78.2,1018.62,0,0,0,0,0.027847
2018/04/20 03:12:00.000,n,157,4.32,3.96,4.68,19.6,78.3,1018.62,0,0,0,0,0.030441
2018/04/20 03:13:00.000,n,157,2.88,1.44,3.96,19.6,78.2,1018.72,0,0,0,0,0.028725
2018/04/20 03:14:00.006,n,168,5.04,5.04,5.4,19.6,78.5,1018.62,0,0,0,0,0.023499
2018/04/20 03:15:00.004,n,182,3.6,2.52,4.32,19.6,78.7,1018.72,0,0,0,0,0.029602
2018/04/20 03:16:00.000,n,169,6.12,5.4,6.84,19.6,78.8,1018.72,0,0,0,0,0.025253
2018/04/20 03:17:00.001,n,147,4.32,3.96,4.68,19.6,79,1018.72,0,0,0,0,0.02697
2018/04/20 03:18:00.014,n,167,6.48,6.48,6.48,19.6,79.1,1018.72,0,0,0,0,0.026093
2018/04/20 03:19:00.000,n,168,3.24,2.52,4.32,19.6,79.1,1018.72,0,0,0,0,0.027847
2018/04/20 03:20:00.000,n,174,2.88,2.52,3.6,19.5,79.2,1018.72,0,0,0,0,0.026093
2018/04/20 03:21:00.000,n,97,0.72,0.72,0.72,19.5,79.3,1018.72,0,0,0,0,0.02697
2018/04/20 03:22:00.005,n,202,2.16,2.16,2.52,19.5,79.4,1018.72,0,0,0,0,0.025253
2018/04/20 03:23:00.003,n,151,2.88,2.16,3.24,19.5,79.4,1018.72,0,0,0,0,0.02697
2018/04/20 03:24:00.000,n,127,3.24,2.52,3.96,19.5,79.5,1018.72,0,0,0,0,0.029602
2018/04/20 03:25:00.000,n,201,2.16,2.16,2.52,19.5,79.5,1018.72,0,0,0,0,0.029564
2018/04/20 03:26:00.012,n,227,3.24,2.52,3.96,19.5,79.5,1018.72,0,0,0,0,0.031357
2018/04/20 03:27:00.009,n,247,1.8,1.44,1.8,19.5,79.6,1018.72,0,0,0,0,0.030479
2018/04/20 03:28:00.000,n,138,3.24,2.88,3.96,19.5,79.5,1018.72,0,0,0,0,0.026131
2018/04/20 03:29:00.002,n,148,3.24,2.88,3.24,19.4,79.6,1018.72,0,0,0,0,0.027847
2018/04/20 03:30:00.000,n,178,2.16,1.8,2.52,19.4,79.6,1018.72,0,0,0,0,0.030479
2018/04/20 03:31:00.000,n,188,2.52,2.16,2.52,19.4,79.6,1018.72,0,0,0,0,0.033951
2018/04/20 03:32:00.000,n,164,2.16,1.8,2.52,19.4,79.6,1018.72,0,0,0,0,0.033073
2018/04/20 03:33:00.000,n,149,1.08,0.72,2.16,19.4,79.7,1018.72,0,0,0,0,0.02697
2018/04/20 03:34:00.008,n,152,1.44,0.72,1.8,19.4,79.7,1018.72,0,0,0,0,0.035706
2018/04/20 03:35:00.005,n,148,3.6,3.6,3.6,19.4,79.7,1018.72,0,0,0,0,0.029564
2018/04/20 03:36:00.002,n,259,1.8,1.44,2.16,19.4,79.8,1018.72,0,0,0,0,0.02697
2018/04/20 03:37:00.000,n,245,1.8,1.08,1.8,19.4,79.8,1018.72,0,0,0,0,0.024376
2018/04/20 03:38:00.000,n,211,1.8,1.08,2.88,19.4,79.9,1018.72,0,0,0,0,0.026131
2018/04/20 03:39:00.000,n,184,2.16,1.08,2.88,19.4,80.2,1018.72,0,0,0,0,0.025253
2018/04/20 03:40:00.000,n,214,2.16,0.72,3.96,19.4,80.2,1018.72,0,0,0,0,0.02697
2018/04/20 03:41:00.007,n,118,2.52,1.8,3.24,19.4,80.1,1018.72,0,0,0,0,0.022621
2018/04/20 03:42:00.005,n,131,3.24,2.88,3.6,19.4,80,1018.72,0,0,0,0,0.027847
2018/04/20 03:43:00.000,n,143,1.8,1.44,2.88,19.4,80,1018.72,0,0,0,0,0.024376
2018/04/20 03:44:00.000,n,131,3.6,3.24,4.68,19.4,80,1018.72,0,0,0,0,0.02697
2018/04/20 03:45:00.014,n,161,1.44,1.08,1.8,19.4,80,1018.72,0,0,0,0,0.023499
2018/04/20 03:46:00.000,n,168,2.16,1.44,2.88,19.4,80.2,1018.72,0,0,0,0,0.02697
2018/04/20 03:47:00.000,n,194,1.08,0.36,1.44,19.3,80.1,1018.62,0,0,0,0,0.026131
2018/04/20 03:48:00.000,n,70,0.36,0.36,0.36,19.3,80.1,1018.62,0,0,0,0,0.025253
2018/04/20 03:49:00.006,n,271,0.72,0.36,1.44,19.3,80.1,1018.62,0,0,0,0,0.026131
2018/04/20 03:50:00.003,n,159,3.24,2.88,3.24,19.3,80.1,1018.62,0,0,0,0,0.023499
2018/04/20 03:51:00.000,n,183,4.32,3.6,5.76,19.3,80.2,1018.62,0,0,0,0,0.024376
2018/04/20 03:52:00.001,n,182,3.24,2.52,3.6,19.3,80.2,1018.62,0,0,0,0,0.020905
2018/04/20 03:53:00.013,n,170,1.8,1.8,2.16,19.3,80.2,1018.62,0,0,0,0,0.025253
2018/04/20 03:54:00.010,n,165,1.8,0.72,3.24,19.3,80.2,1018.62,0,0,0,0,0.026131
2018/04/20 03:55:00.000,n,161,3.96,3.96,5.04,19.3,80.2,1018.62,0,0,0,0,0.022621
2018/04/20 03:56:00.000,n,179,3.6,3.24,4.32,19.3,80.3,1018.62,0,0,0,0,0.021782
2018/04/20 03:57:00.000,n,186,2.88,2.52,3.24,19.2,80.3,1018.62,0,0,0,0,0.026131
2018/04/20 03:58:00.000,n,175,3.24,2.52,3.96,19.2,80.4,1018.62,0,0,0,0,0.02697
2018/04/20 03:59:00.000,n,177,1.44,1.08,2.16,19.2,80.5,1018.62,0,0,0,0,0.028725
2018/04/20 04:00:00.009,n,142,3.6,2.52,4.32,19.2,80.5,1018.62,0,0,0,0,0.02697
2018/04/20 04:01:00.006,n,155,2.88,2.16,3.96,19.2,80.5,1018.62,0,0,0,0,0.025253
2018/04/20 04:02:00.003,n,275,3.96,3.6,4.68,19.2,80.5,1018.62,0,0,0,0,0.02697
2018/04/20 04:03:00.005,n,302,1.44,1.08,1.44,19.2,80.8,1018.62,0,0,0,0,0.028725
2018/04/20 04:04:00.001,n,215,1.08,0.36,1.44,19.2,80.7,1018.62,0,0,0,0,0.028725
2018/04/20 04:05:00.000,n,44,0.36,0,0.72,19.2,80.6,1018.62,0,0,0,0,0.029564
2018/04/20 04:06:00.000,n,223,0.36,0,0.36,19.2,80.7,1018.62,0,0,0,0,0.026131
2018/04/20 04:07:00.000,n,219,2.16,1.8,2.88,19.2,80.7,1018.62,0,0,0,0,0.026131
2018/04/20 04:08:00.000,n,106,2.52,2.16,2.88,19.2,80.8,1018.62,0,0,0,0,0.023499
2018/04/20 04:09:00.006,n,233,2.88,1.8,3.6,19.2,80.8,1018.52,0,0,0,0,0.026131
2018/04/20 04:10:00.003,n,222,3.6,3.6,3.96,19.2,80.9,1018.62,0,0,0,0,0.022621
2018/04/20 04:11:00.003,n,204,3.96,2.88,4.32,19.2,80.9,1018.52,0,0,0,0,0.029564
2018/04/20 04:12:00.015,n,266,2.52,1.44,3.6,19.1,80.9,1018.52,0,0,0,0,0.028725
2018/04/20 04:13:00.000,n,120,0.72,0.36,1.08,19.1,81.3,1018.52,0,0,0,0,0.027847
2018/04/20 04:14:00.000,n,128,0.72,0.36,1.08,19.2,81.2,1018.52,0,0,0,0,0.026131
2018/04/20 04:15:00.000,n,174,2.88,2.52,3.24,19.2,81.1,1018.52,0,0,0,0,0.023499
2018/04/20 04:16:00.000,n,227,3.24,2.52,3.6,19.2,81.3,1018.52,0,0,0,0,0.026131
2018/04/20 04:17:00.004,n,223,2.16,1.44,2.88,19.2,81.2,1018.52,0,0,0,0,0.023499
2018/04/20 04:18:00.001,n,147,3.96,3.24,4.32,19.2,81.2,1018.52,0,0,0,0,0.023499
2018/04/20 04:19:00.000,n,259,2.88,2.88,3.24,19.1,81.2,1018.62,0,0,0,0,0.021782
2018/04/20 04:20:00.011,n,84,2.16,1.44,3.24,19.1,81.4,1018.62,0,0,0,0,0.025253
2018/04/20 04:21:00.009,n,216,3.24,2.88,3.6,19.1,81.3,1018.62,0,0,0,0,0.020905
2018/04/20 04:22:00.000,n,148,2.52,1.8,2.88,19.1,81.2,1018.62,0,0,0,0,0.023499
2018/04/20 04:23:00.004,n,198,2.16,0.72,3.96,19.1,81.2,1018.62,0,0,0,0,0.024376
2018/04/20 04:24:00.002,n,205,1.8,1.08,2.16,19.1,81.3,1018.62,0,0,0,0,0.021782
2018/04/20 04:25:00.000,n,204,0.72,0.36,1.08,19.1,81.3,1018.62,0,0,0,0,0.025253
2018/04/20 04:26:00.000,n,184,1.44,0.72,2.16,19.1,81.3,1018.62,0,0,0,0,0.022621
2018/04/20 04:27:00.009,n,224,1.8,1.08,2.16,19.1,81.2,1018.62,0,0,0,0,0.022621
2018/04/20 04:28:00.006,n,148,1.08,0.72,1.44,19.1,81.2,1018.62,0,0,0,0,0.023499
2018/04/20 04:29:00.003,n,204,2.88,1.08,3.24,19,81.3,1018.62,0,0,0,0,0.020905
2018/04/20 04:30:00.004,n,286,5.76,5.04,6.48,19,81.3,1018.72,0,0,0,0,0.019989
2018/04/20 04:31:00.001,n,259,2.88,2.52,3.6,19,81.3,1018.72,0,0,0,0,0.020905
2018/04/20 04:32:00.000,n,249,5.04,3.24,6.12,19,81.3,1018.72,0,0,0,0,0.022621
2018/04/20 04:33:00.000,n,251,4.32,3.6,4.68,19,81.4,1018.72,0,0,0,0,0.030518
2018/04/20 04:34:00.006,n,249,6.48,5.76,6.84,19,81.5,1018.72,0,0,0,0,0.033989
2018/04/20 04:35:00.003,n,230,4.68,4.32,5.04,19,81.9,1018.72,0,0,0,0,0.036583
2018/04/20 04:36:00.000,n,244,4.32,3.6,5.4,19.1,82.1,1018.82,0,0,0,0,0.033112
2018/04/20 04:37:00.000,n,265,8.28,7.56,10.440002,19.1,82,1018.82,0,0,0,0,0.036583
2018/04/20 04:38:00.000,n,249,6.12,5.04,6.84,19.1,81.5,1018.82,0,0,0,0,0.033989
2018/04/20 04:39:00.011,n,258,7.2,6.48,7.92,19,81.4,1018.82,0,0,0,0,0.027885
2018/04/20 04:40:00.000,n,261,5.04,4.32,5.04,19,81.4,1018.82,0,0,0,0,0.02964
2018/04/20 04:41:00.000,n,244,5.76,4.68,6.12,19,81.4,1018.82,0,0,0,0,0.032234
2018/04/20 04:42:00.000,n,277,4.68,2.52,5.76,19,81.3,1018.82,0,0,0,0,0.034866
2018/04/20 04:43:00.000,n,272,6.48,5.76,6.84,18.9,81.3,1018.82,0,0,0,0,0.031357
2018/04/20 04:44:00.000,n,255,5.04,4.32,6.12,18.9,81.3,1018.82,0,0,0,0,0.027008
2018/04/20 04:45:00.008,n,242,3.24,2.16,4.68,18.9,81.3,1018.82,0,0,0,0,0.026131
2018/04/20 04:46:00.005,n,261,4.32,3.6,4.68,18.9,81.2,1018.82,0,0,0,0,0.031357
2018/04/20 04:47:00.002,n,249,2.88,2.16,3.96,18.9,81.3,1018.92,0,0,0,0,0.022659
2018/04/20 04:48:00.002,n,241,3.96,3.6,4.68,18.9,81.2,1018.92,0,0,0,0,0.030479
2018/04/20 04:49:00.000,n,93,1.08,0.72,1.44,18.9,81.3,1018.92,0,0,0,0,0.032196
2018/04/20 04:50:00.000,n,242,4.68,3.96,5.04,18.9,81.4,1018.92,0,0,0,0,0.032196
2018/04/20 04:51:00.000,n,253,3.96,3.24,4.68,18.9,81.2,1018.92,0,0,0,0,0.031357
2018/04/20 04:52:00.006,n,246,3.96,1.8,5.04,18.9,81.4,1018.92,0,0,0,0,0.032196
2018/04/20 04:53:00.004,n,239,4.68,4.68,5.04,19,81.3,1018.92,0,0,0,0,0.031357
2018/04/20 04:54:00.000,n,257,4.32,4.32,5.4,19,81.1,1018.92,0,0,0,0,0.032196
2018/04/20 04:55:00.000,n,274,3.6,2.16,4.32,19,81.1,1018.92,0,0,0,0,0.030479
2018/04/20 04:56:00.013,n,252,4.68,4.68,5.4,19,80.6,1018.92,0,0,0,0,0.033073